Location: Fiddletown
(38.4917°N, 120.6633°W)
Time: 11:00:00
(UTC-07:00)

Envisat - Visible Passes

Search period start: 30 August 2015 00:00
Search period end: 09 September 2015 00:00
Orbit: 765 x 766 km, 98.3° (Epoch: 30 August)

Date Brightness Start Highest point End Pass type
(mag) Time Alt. Az. Time Alt. Az. Time Alt. Az.
30 Aug 3.7 21:21:40 34° E 21:22:06 34° ENE 21:26:43 10° N visible
30 Aug 4.9 23:01:53 25° W 23:01:53 25° W 23:05:21 10° NW visible
31 Aug 4.6 20:44:42 15° E 20:45:46 16° ENE 20:48:55 10° NNE visible
31 Aug 3.5 22:24:55 55° WNW 22:24:55 55° WNW 22:29:24 10° NNW visible
01 Sep 3.0 21:47:57 61° ENE 21:47:57 61° ENE 21:52:46 10° N visible
01 Sep 5.6 23:28:10 13° WNW 23:28:10 13° WNW 23:29:46 10° WNW visible
02 Sep 4.0 21:11:00 27° ENE 21:11:17 28° ENE 21:15:36 10° N visible
02 Sep 4.6 22:51:13 30° WNW 22:51:13 30° WNW 22:54:45 10° NNW visible
03 Sep 4.9 20:34:03 12° ENE 20:34:59 13° ENE 20:37:19 10° NE visible
03 Sep 3.4 22:14:16 61° NW 22:14:16 61° NW 22:18:34 10° NNW visible
04 Sep 3.4 21:37:19 47° ENE 21:37:19 47° ENE 21:41:47 10° N visible
04 Sep 5.4 23:17:31 16° WNW 23:17:31 16° WNW 23:19:35 10° NW visible
05 Sep 4.3 21:00:21 22° ENE 21:00:28 22° ENE 21:04:24 10° NNE visible
05 Sep 4.4 22:40:34 34° WNW 22:40:34 34° WNW 22:44:03 10° NNW visible
06 Sep 3.4 22:03:36 58° N 22:03:36 58° N 22:07:41 10° NNW visible
07 Sep 3.7 21:26:39 37° NE 21:26:39 37° NE 21:30:44 10° N visible
07 Sep 5.3 23:06:52 19° WNW 23:06:52 19° WNW 23:09:09 10° NW visible
08 Sep 4.6 20:49:42 18° ENE 20:49:42 18° ENE 20:53:05 10° NNE visible
08 Sep 4.3 22:29:55 38° NW 22:29:55 38° NW 22:33:18 10° NNW visible
